• In Uzbekistan
  • List of Countries
  • For 7 days
  • Water Temperature
  • Satellite Maps
  • Weather Map
  • Weather Widgets
  • user-avatar
    Login

    Hourly Weather Marsa Alam

    Today, 19 November, Monday

    Time Temperature Precipitation Wind Pressure Humidity
    00:00 +21°C° 0 mm 1 mps 716 mmHg 51%
    01:00 +20°C° 0 mm 1 mps 715 mmHg 51%
    02:00 +20°C° 0 mm 1 mps 715 mmHg 49%
    03:00 +19°C° 0 mm 1 mps 715 mmHg 48%
    04:00 +19°C° 0 mm 1 mps 715 mmHg 47%
    05:00 +19°C° 0 mm 1 mps 715 mmHg 46%
    06:00 +20°C° 0 mm 1 mps 716 mmHg 41%
    07:00 +22°C° 0 mm 1 mps 716 mmHg 36%
    08:00 +24°C° 0 mm 1 mps 717 mmHg 26%
    09:00 +25°C° 0 mm 1 mps 717 mmHg 23%
    10:00 +26°C° 0 mm 1 mps 717 mmHg 21%
    11:00 +27°C° 0 mm 1 mps 717 mmHg 18%
    12:00 +28°C° 0 mm 2 mps 717 mmHg 17%
    13:00 +29°C° 0 mm 2 mps 717 mmHg 16%
    14:00 +29°C° 0 mm 3 mps 717 mmHg 16%
    15:00 +28°C° 0 mm 3 mps 717 mmHg 20%
    16:00 +27°C° 0 mm 3 mps 716 mmHg 25%
    17:00 +26°C° 0 mm 3 mps 716 mmHg 29%
    18:00 +25°C° 0 mm 3 mps 717 mmHg 35%
    19:00 +24°C° 0 mm 3 mps 717 mmHg 41%
    20:00 +23°C° 0 mm 2 mps 717 mmHg 46%
    21:00 +21°C° 0 mm 2 mps 717 mmHg 51%
    22:00 +21°C° 0 mm 2 mps 717 mmHg 56%
    23:00 +20°C° 0 mm 2 mps 717 mmHg 61%

    Tomorrow, 20 November, Tuesday

    Time Temperature Precipitation Wind Pressure Humidity
    00:00 +20°C° 0 mm 2 mps 717 mmHg 62%
    01:00 +19°C° 0 mm 2 mps 717 mmHg 63%
    02:00 +18°C° 0 mm 2 mps 717 mmHg 64%
    03:00 +18°C° 0 mm 2 mps 717 mmHg 61%
    04:00 +17°C° 0 mm 2 mps 717 mmHg 59%
    05:00 +17°C° 0 mm 2 mps 717 mmHg 56%
    06:00 +19°C° 0 mm 3 mps 717 mmHg 49%
    07:00 +20°C° 0 mm 3 mps 718 mmHg 42%
    08:00 +22°C° 0 mm 3 mps 718 mmHg 36%
    09:00 +23°C° 0 mm 4 mps 719 mmHg 32%
    10:00 +26°C° 0 mm 4 mps 719 mmHg 29%
    11:00 +28°C° 0 mm 5 mps 719 mmHg 26%
    12:00 +28°C° 0 mm 5 mps 719 mmHg 27%
    13:00 +28°C° 0 mm 6 mps 718 mmHg 28%
    14:00 +29°C° 0 mm 6 mps 718 mmHg 29%
    15:00 +27°C° 0 mm 6 mps 718 mmHg 35%
    16:00 +26°C° 0 mm 5 mps 717 mmHg 41%
    17:00 +25°C° 0 mm 5 mps 717 mmHg 47%
    18:00 +23°C° 0 mm 4 mps 717 mmHg 51%
    19:00 +22°C° 0 mm 4 mps 717 mmHg 55%
    20:00 +21°C° 0 mm 3 mps 718 mmHg 59%
    21:00 +21°C° 0 mm 3 mps 717 mmHg 59%
    22:00 +21°C° 0 mm 3 mps 717 mmHg 59%
    23:00 +20°C° 0 mm 3 mps 717 mmHg 58%

    Day after tomorrow, 21 November, Wednesday

    Time Temperature Precipitation Wind Pressure Humidity
    00:00 +20°C° 0 mm 3 mps 717 mmHg 58%
    01:00 +20°C° 0 mm 3 mps 717 mmHg 57%
    02:00 +20°C° 0 mm 3 mps 717 mmHg 56%
    03:00 +19°C° 0 mm 3 mps 716 mmHg 58%
    04:00 +19°C° 0 mm 3 mps 716 mmHg 59%
    05:00 +19°C° 0 mm 3 mps 716 mmHg 60%
    06:00 +20°C° 0 mm 3 mps 716 mmHg 54%
    07:00 +21°C° 0 mm 3 mps 717 mmHg 48%
    08:00 +24°C° 0 mm 3 mps 717 mmHg 42%
    09:00 +25°C° 0 mm 4 mps 717 mmHg 38%
    10:00 +27°C° 0 mm 4 mps 717 mmHg 34%
    11:00 +28°C° 0 mm 4 mps 717 mmHg 30%
    12:00 +29°C° 0 mm 4 mps 717 mmHg 30%
    13:00 +29°C° 0 mm 4 mps 716 mmHg 30%
    14:00 +29°C° 0 mm 4 mps 716 mmHg 29%
    15:00 +28°C° 0 mm 4 mps 715 mmHg 35%
    16:00 +27°C° 0 mm 4 mps 715 mmHg 40%
    17:00 +26°C° 0 mm 4 mps 715 mmHg 45%
    18:00 +25°C° 0 mm 3 mps 716 mmHg 50%
    19:00 +24°C° 0 mm 3 mps 716 mmHg 55%
    20:00 +23°C° 0 mm 2 mps 716 mmHg 61%
    21:00 +23°C° 0 mm 2 mps 716 mmHg 61%
    22:00 +21°C° 0 mm 2 mps 716 mmHg 61%
    23:00 +21°C° 0 mm 2 mps 716 mmHg 62%

    22 November, Thursday

    Time Temperature Precipitation Wind Pressure Humidity
    00:00 +21°C° 0 mm 2 mps 715 mmHg 59%
    01:00 +20°C° 0 mm 2 mps 715 mmHg 57%
    02:00 +20°C° 0 mm 2 mps 715 mmHg 55%
    03:00 +20°C° 0 mm 2 mps 714 mmHg 54%
    04:00 +20°C° 0 mm 1 mps 714 mmHg 53%
    05:00 +20°C° 0 mm 1 mps 714 mmHg 53%
    06:00 +20°C° 0 mm 2 mps 715 mmHg 48%
    07:00 +23°C° 0 mm 2 mps 715 mmHg 43%
    08:00 +24°C° 0 mm 2 mps 716 mmHg 38%
    09:00 +25°C° 0 mm 3 mps 716 mmHg 34%
    10:00 +27°C° 0 mm 4 mps 716 mmHg 29%
    11:00 +28°C° 0 mm 5 mps 716 mmHg 25%
    12:00 +28°C° 0 mm 5 mps 715 mmHg 24%
    13:00 +29°C° 0 mm 6 mps 715 mmHg 23%
    14:00 +29°C° 0 mm 6 mps 714 mmHg 22%
    15:00 +28°C° 0 mm 5 mps 714 mmHg 25%
    16:00 +27°C° 0 mm 5 mps 714 mmHg 27%
    17:00 +26°C° 0 mm 4 mps 714 mmHg 29%
    18:00 +25°C° 0 mm 3 mps 714 mmHg 32%
    19:00 +24°C° 0 mm 3 mps 715 mmHg 34%
    20:00 +23°C° 0 mm 2 mps 715 mmHg 36%
    21:00 +21°C° 0 mm 2 mps 715 mmHg 35%
    22:00 +21°C° 0 mm 2 mps 715 mmHg 34%
    23:00 +21°C° 0 mm 1 mps 715 mmHg 33%

    23 November, Friday

    Time Temperature Precipitation Wind Pressure Humidity
    00:00 +20°C° 0 mm 2 mps 715 mmHg 32%
    01:00 +20°C° 0 mm 2 mps 714 mmHg 32%
    02:00 +19°C° 0 mm 2 mps 714 mmHg 32%
    03:00 +19°C° 0 mm 2 mps 714 mmHg 33%
    04:00 +18°C° 0 mm 2 mps 714 mmHg 34%
    05:00 +18°C° 0 mm 2 mps 714 mmHg 35%
    06:00 +20°C° 0 mm 2 mps 715 mmHg 32%
    07:00 +21°C° 0 mm 2 mps 716 mmHg 30%
    08:00 +24°C° 0 mm 2 mps 716 mmHg 27%
    09:00 +25°C° 0 mm 2 mps 716 mmHg 25%
    10:00 +26°C° 0 mm 3 mps 716 mmHg 24%
    11:00 +27°C° 0 mm 3 mps 717 mmHg 22%
    12:00 +28°C° 0 mm 4 mps 716 mmHg 21%
    13:00 +28°C° 0 mm 5 mps 716 mmHg 20%
    14:00 +28°C° 0 mm 6 mps 715 mmHg 19%
    15:00 +27°C° 0 mm 5 mps 715 mmHg 22%
    16:00 +26°C° 0 mm 4 mps 715 mmHg 25%
    17:00 +25°C° 0 mm 4 mps 715 mmHg 28%
    18:00 +24°C° 0 mm 3 mps 716 mmHg 31%
    19:00 +22°C° 0 mm 3 mps 716 mmHg 33%
    20:00 +21°C° 0 mm 2 mps 716 mmHg 36%
    21:00 +20°C° 0 mm 3 mps 716 mmHg 38%
    22:00 +19°C° 0 mm 3 mps 716 mmHg 41%
    23:00 +19°C° 0 mm 3 mps 716 mmHg 43%

    24 November, Saturday

    Time Temperature Precipitation Wind Pressure Humidity
    00:00 +18°C° 0 mm 3 mps 716 mmHg 45%
    01:00 +17°C° 0 mm 3 mps 716 mmHg 47%
    02:00 +17°C° 0 mm 3 mps 715 mmHg 49%
    03:00 +16°C° 0 mm 3 mps 715 mmHg 52%
    04:00 +16°C° 0 mm 3 mps 715 mmHg 54%
    05:00 +14°C° 0 mm 3 mps 716 mmHg 56%
    06:00 +15°C° 0 mm 4 mps 716 mmHg 54%
    07:00 +17°C° 0 mm 4 mps 717 mmHg 52%
    08:00 +18°C° 0 mm 4 mps 717 mmHg 50%
    09:00 +19°C° 0 mm 5 mps 717 mmHg 45%
    10:00 +21°C° 0 mm 5 mps 717 mmHg 39%
    11:00 +22°C° 0 mm 6 mps 717 mmHg 33%
    12:00 +22°C° 0 mm 6 mps 717 mmHg 31%
    13:00 +23°C° 0 mm 6 mps 716 mmHg 29%
    14:00 +23°C° 0 mm 6 mps 716 mmHg 27%
    15:00 +22°C° 0 mm 6 mps 716 mmHg 28%
    16:00 +21°C° 0 mm 5 mps 716 mmHg 30%
    17:00 +20°C° 0 mm 5 mps 716 mmHg 31%
    18:00 +20°C° 0 mm 5 mps 716 mmHg 34%
    19:00 +19°C° 0 mm 5 mps 717 mmHg 36%
    20:00 +18°C° 0 mm 4 mps 717 mmHg 38%
    21:00 +17°C° 0 mm 4 mps 717 mmHg 42%
    22:00 +17°C° 0 mm 4 mps 717 mmHg 45%
    23:00 +15°C° 0 mm 5 mps 716 mmHg 49%
    Show more